Weather History for Moses Lake, WA

Change the Weather History Date:

Tuesday, March 12, 2013

  Actual Average Record
Temperature  
Mean Temperature 51 °F 43 °F  
Max Temperature 60 °F 54 °F 66 °F (2007)
Min Temperature 41 °F 31 °F 15 °F (2009)
Degree Days  
Heating Degree Days 14 22  
Month to date heating degree days 262 288  
Since 1 July heating degree days 4381 4793  
Cooling Degree Days 0 0  
Month to date cooling degree days 0 0  
Year to date cooling degree days 0 0  
Moisture  
Dew Point 38 °F    
Average Humidity 68    
Maximum Humidity 89    
Minimum Humidity 46    
Precipitation  
Precipitation 0.00 in 0.02 in 0.10 in (2003)
Month to date precipitation 0.51 0.23  
Year to date precipitation 0.96 2.17  
Sea Level Pressure  
Sea Level Pressure 30.12 in    
Wind  
Wind Speed 7 mph (South)    
Max Wind Speed 20 mph    
Max Gust Speed 24 mph    
Visibility 10 miles    
Events      
T = Trace of Precipitation, MM = Missing Value Source: NWS Daily Summary

Daily Weather History Graph

Daily Weather History Graph

Search for Another Location

Airport:

Trip Planner

Search our weather history database for the weather conditions in past years. The results will help you decide how hot, cold, wet, or windy it might be!

Date:

Astronomy

Mar. 12, 2013 Rise Set
Actual Time 7:15 AM PDT 6:59 PM PDT
Civil Twilight 6:45 AM PDT 7:29 PM PDT
Nautical Twilight 6:09 AM PDT 8:05 PM PDT
Astronomical Twilight 5:33 AM PDT 8:41 PM PDT
Moon 7:18 AM PDT (3/12) 8:28 PM PDT (3/12)
Length of Visible Light 12h 44m
Length of Day
11h 43m
New Moon, 1% of the Moon is Illuminated
Mar 12
New Moon
Mar 19
First Quarter
Mar 27
Full
Apr 2
Last Quarter
Apr 10
New

Hourly Weather History & Observations

Time (PDT) Temp. Windchill Dew Point Humidity Pressure Visibility Wind Dir Wind Speed Gust Speed Precip Events Conditions
12:52 AM 44.1 °F 42.5 °F 32.0 °F 63% 30.19 in 10.0 mi East 3.5 mph - N/A   Overcast
1:52 AM 43.0 °F 41.3 °F 32.0 °F 65% 30.17 in 10.0 mi NE 3.5 mph - N/A   Overcast
2:52 AM 43.0 °F 41.3 °F 32.0 °F 65% 30.16 in 10.0 mi East 3.5 mph - N/A   Clear
3:52 AM 42.1 °F - 33.1 °F 70% 30.14 in 10.0 mi Calm Calm - N/A   Overcast
4:52 AM 41.0 °F 37.1 °F 35.1 °F 79% 30.27 in 10.0 mi South 5.8 mph - N/A   Partly Cloudy
5:52 AM 43.0 °F 39.5 °F 36.0 °F 76% 30.11 in 10.0 mi South 5.8 mph - N/A   Clear
6:52 AM 43.0 °F 38.8 °F 37.9 °F 82% 30.25 in 10.0 mi South 6.9 mph - N/A   Clear
7:52 AM 43.0 °F 38.2 °F 37.9 °F 82% 30.23 in 10.0 mi South 8.1 mph - N/A   Clear
8:52 AM 43.0 °F - 39.0 °F 86% 30.23 in 10.0 mi Calm Calm - N/A   Clear
9:52 AM 48.0 °F - 39.9 °F 74% 30.24 in 10.0 mi SSW 4.6 mph - N/A   Clear
10:52 AM 50.0 °F - 41.0 °F 71% 30.08 in 10.0 mi South 9.2 mph - N/A   Mostly Cloudy
11:52 AM 53.1 °F - 39.0 °F 59% 30.07 in 10.0 mi South 8.1 mph - N/A   Clear
12:52 PM 53.1 °F - 39.9 °F 61% 30.07 in 10.0 mi South 10.4 mph - N/A   Clear
1:52 PM 55.0 °F - 39.9 °F 57% 30.06 in 10.0 mi South 10.4 mph - N/A   Clear
2:52 PM 57.9 °F - 41.0 °F 53% 30.04 in 10.0 mi SSW 10.4 mph - N/A   Clear
3:52 PM 57.9 °F - 39.9 °F 51% 30.05 in 10.0 mi South 11.5 mph - N/A   Partly Cloudy
4:52 PM 60.1 °F - 39.0 °F 46% 30.05 in 10.0 mi SSW 13.8 mph - N/A   Clear
5:52 PM 59.0 °F - 39.9 °F 49% 30.04 in 10.0 mi SSW 8.1 mph - N/A   Partly Cloudy
6:52 PM 57.0 °F - 39.9 °F 53% 30.05 in 10.0 mi SSW 10.4 mph - N/A   Partly Cloudy
7:52 PM 55.9 °F - 39.9 °F 55% 30.06 in 10.0 mi South 12.7 mph - N/A   Scattered Clouds
8:52 PM 54.0 °F - 39.9 °F 59% 30.07 in 10.0 mi South 4.6 mph - N/A   Partly Cloudy
9:52 PM 54.0 °F - 39.9 °F 59% 30.06 in 10.0 mi SW 5.8 mph - N/A   Mostly Cloudy
10:52 PM 54.0 °F - 39.9 °F 59% 30.07 in 10.0 mi SSW 6.9 mph - N/A   Overcast
11:52 PM 53.1 °F - 41.0 °F 64% 30.08 in 10.0 mi SSW 4.6 mph - N/A   Overcast